STARLINK-6254, 57090

Orbit data source: Space-Track

STARLINK-6254, 57090 is a payload satellite owned by SpaceX/Seattle (US) in LEO that was launched on Thu, 22 Jun 2023 UTC via an FALCON 9 launch vehicle from the Air Force Western Test Range (AFWTR). Payload-class satellites include a variety of spacecraft equipped with specific instruments for various scientific and technological missions. These include communications satellites like Starlink; space stations such as the ISS; scientific satellites like the Hubble; Earth observation satellites from companies like Planet Labs, Umbra, and HawkEye 360; GPS; miniature CubeSats for education and research; and military/defense satellites.

Loading next visibility...
Identifier
57090, 2023-088AU
Orbit
LEO
Country
Flag of USUS
Related business
Manufacturer
SpaceX/Seattle
Mission
Operational Commercial Communications
Bus & Motor
STARLINK, Unknown motor
Mass
305 kg wet, ~290 kg dry
Launch date (UTC)
Icon of a cake. It is the launch day of the satellite!2023-06-22 (3 years ago)
Launch vehicle
FALCON 9
Launch site
Air Force Western Test Range (AFWTR)
Object type
Payload
Rocket body
Debris
Shape & HBR
Box + 1 Pan, 10.1 m
Radar Cross Section
11.087 m², Large (>1 m²)

Expand to show TLE details & history
Last TLE update: 2 days ago

TLE from 2 days ago
0 STARLINK-6254
1 57090U 23088AU  26171.47606313  .00000950  00000-0  44029-4 0  9996
2 57090  43.0009 235.3415 0001459 268.1571  91.9113 15.27583971166220
Epoch: 2026-06-20T11:25Z
TLE epoch observation values (Epoch: 2026-06-20T11:25:31.854Z)
Latitude
-0.00005°
Longitude
155.26857°
Altitude
482.846 km
Speed
7.626 km/s
True Right ascension
15h 41m 21s
True Declination
0° 00' 00"
Sunlit
Object was in full shadow at epoch
Visualization orbit readout
Latitude
Unknown
Longitude
Unknown
Altitude
Unknown
Speed
Unknown
Apparent Right ascension
Unknown
Apparent Declination
Unknown
Sunlit
N/A
Visualization observer readout
Local Sidereal Time
21:33:04
Azimuth
Unknown
Elevation
Unknown
Doppler factor
Unknown
Orbital elements
Apogee altitude
485.984 km
Perigee altitude
483.981 km
Semi-major axis
6,863.119 km
Eccentricity
0.00015
Inclination
43.0009°
RAAN
235.3415°
Arg. of periapsis
268.1571°
True anomaly
91.92801°
Mean anomaly
91.9113°
Eccentric anomaly
91.91965°
Mean motion
3.81734 °/min
Orbital period
94.31 mins
BSTAR
0.000044029
Loading maneuver chart data...
Computing Atmospheric mass density...
Loading historical data...
Loading historical data...
Loading historical data...
Loading historical data...
Loading historical data...
Loading historical data...
Loading historical data...

Documentation

Showing up to 5 results
|